Regional Weather Roundup
Issued by NWS

Home | Current Version | Previous Version | Graphics & Text | Print | Product List | Glossary On
Versions: 1 2 3 4 5 6 7 8 9 10 11 12 13 14 15 16 17 18 19 20 21 22 23 24 25 26 27 28 29 30 31 32 33 34 35 36 37 38 39 40 41 42 43 44 45 46 47 48 49 50
000
ASUS43 KLSX 290659
RWRMO

WEATHER SUMMARY FOR MISSOURI
NATIONAL WEATHER SERVICE SPRINGFIELD MO
100 AM CST MON DEC 29 2014

NOTE: "FAIR" INDICATES FEW OR NO CLOUDS BELOW 12,000 FEET WITH NO
       SIGNIFICANT WEATHER AND/OR OBSTRUCTIONS TO VISIBILITY.
       CURRENT SKY AND/OR WEATHER CONDITIONS ARE NOT AVAILABLE FOR
       CHILLICOTHE AND FARMINGTON.

MOZ001>031-035>038-043-044-053-054-290800-
...NORTHERN AND WESTERN MISSOURI...

CITY           SKY/WX    TMP DP  RH WIND       PRES   REMARKS
KANSAS CTY INT CLOUDY    28  21  75 S6        30.20R WCI  22
KANSAS C DTWN  CLOUDY    33  22  63 CALM      30.21S
LEE`S SUMMIT   MOCLDY    30  20  66 S3        30.21S
ST JOSEPH      CLOUDY    27  23  85 CALM      30.21S
CHILLICOTHE      N/A     28  23  81 CALM      30.23S
KIRKSVILLE     CLOUDY    25  23  92 CALM      30.23R

$$
MOZ066>068-077>081-088>096-101>105-290800-
...SOUTHWEST MISSOURI...

CITY           SKY/WX    TMP DP  RH WIND       PRES   REMARKS
SPRINGFIELD    CLEAR     23  18  81 CALM      30.17S
JOPLIN         CLEAR     22  20  92 CALM      30.19S

$$
MOZ032>034-039>042-045>050-055>058-069>072-290800-
...CENTRAL MISSOURI...

CITY           SKY/WX    TMP DP  RH WIND       PRES   REMARKS
COLUMBIA       CLEAR     29  21  72 E3        30.21S
JEFFERSON CITY CLEAR     22  19  89 CALM      30.24S
ROLLA          CLEAR     23  20  88 CALM      30.18S
SEDALIA        PTCLDY    24  20  84 SE3       30.22R
WARRENSBURG    MOCLDY    23  21  93 CALM      30.22S
OSAGE BEACH    CLEAR     21  18  86 CALM      30.20F

$$
MOZ051-052-059>065-290800-
...EAST CENTRAL MISSOURI...

CITY           SKY/WX    TMP DP  RH WIND       PRES   REMARKS
ST LOUIS INTL  CLEAR     27  22  81 CALM      30.25R
SPIRIT OF STL  CLEAR     22  20  92 CALM      30.24S FOG
ST CHARLES     CLEAR     26  24  92 CALM      30.25S FOG

$$
MOZ072>076-082>087-097>100-106>115-290800-
...SOUTH CENTRAL AND SOUTHEAST MISSOURI...

CITY           SKY/WX    TMP DP  RH WIND       PRES   REMARKS
CAPE GIRARDEAU CLOUDY    32  27  81 N8        30.22F WCI  25
FARMINGTON     CLEAR     19  18  93 CALM      30.22R
POPLAR BLUFF   CLOUDY    32  25  75 NE7       30.21F WCI  26
WEST PLAINS    CLEAR     20  16  84 CALM      30.18S

$$


USA.gov is the U.S. government's official web portal to all federal, state and local government web resources and services.